Theta_e
324 335 338 342 342 342 340 341 340 341 342 343 344 343 341 342 339 341 335 335 336 340 340 340 341 339 338 337 337 338 334 331 329 327 329 329 330 329 328 328 328 327 326
339 334 339 341 341 340 339 339 338 339 340 341 341 342 344 342 342 340 333 338 337 340 337 339 341 339 339 337 337 337 337 331 330 327 329 330 330 329 329 330 329 328 326
343 342 338 336 339 339 339 339 338 338 337 337 340 341 341 342 340 338 336 334 333 339 334 334 339 339 339 338 337 337 337 332 331 327 330 330 330 330 330 330 329 327 326
344 342 343 344 340 337 337 338 338 337 337 337 337 337 339 341 340 339 338 332 332 335 336 333 333 340 341 339 339 338 337 335 331 327 330 330 329 330 330 330 328 328 328
344 343 343 343 343 340 338 339 340 338 337 337 338 338 339 341 342 338 337 335 333 333 333 332 333 331 340 341 339 338 337 335 332 328 329 329 329 329 329 330 329 326 330
345 330 344 346 344 341 339 341 341 341 341 343 345 345 343 341 337 336 336 331 330 331 332 330 330 332 333 338 331 338 337 336 333 329 329 329 330 328 328 329 329 328 330
344 341 345 345 344 344 342 341 342 343 342 342 341 340 339 339 338 335 333 331 330 330 330 331 330 330 331 337 334 337 336 336 335 330 330 330 328 327 329 330 330 329 327
345 345 345 345 346 344 343 343 343 341 338 334 332 332 332 332 332 332 330 330 331 333 330 330 330 333 337 339 339 336 334 336 335 331 329 329 328 329 327 330 330 327 329
344 343 342 340 341 342 341 340 338 337 335 335 337 334 333 330 333 332 331 330 330 332 332 330 332 335 336 338 339 337 335 333 333 328 328 330 330 328 328 330 330 325 329
340 341 338 337 337 336 333 331 330 330 331 331 332 332 333 334 335 332 333 332 333 333 332 331 333 331 334 337 336 335 335 333 332 328 329 330 330 328 328 328 327 325 327
332 330 326 325 320 317 315 313 313 315 322 327 329 329 329 331 331 331 332 332 333 334 331 331 331 331 330 333 334 334 335 336 332 328 329 330 330 327 326 318 320 328 322
317 313 312 312 311 311 311 311 311 310 312 319 323 326 327 329 331 329 330 331 332 333 332 332 333 329 330 329 333 334 336 333 329 329 329 330 330 325 314 316 320 321 320
312 313 312 311 310 309 308 308 309 309 312 314 318 318 323 325 324 326 329 331 331 332 333 333 332 330 329 328 331 334 334 335 334 329 328 331 329 324 314 316 317 319 316
312 312 312 311 310 308 306 305 305 308 308 311 314 316 318 321 323 322 325 328 329 331 332 332 329 331 329 329 329 331 333 335 335 331 328 330 330 325 315 316 317 317 315
313 312 313 312 310 307 305 304 304 304 306 309 312 317 319 316 316 320 321 325 327 329 330 333 331 331 327 330 328 330 332 332 333 332 330 330 330 328 317 316 317 318 316
312 312 312 311 308 305 304 303 303 304 304 306 309 311 314 317 315 315 318 320 323 324 328 330 332 333 331 330 328 326 330 331 332 332 332 330 330 328 320 316 317 317 316
312 312 312 310 305 303 303 303 303 303 304 305 306 308 310 315 317 315 312 315 317 320 319 324 330 332 332 331 329 329 329 331 331 332 331 330 329 328 323 315 316 317 317
312 312 311 309 303 303 303 302 303 304 305 306 308 307 306 304 306 314 315 315 313 315 317 315 321 329 330 329 328 329 329 330 331 333 331 330 330 329 325 314 316 317 316
313 312 311 308 303 302 302 302 303 306 308 308 308 307 306 304 302 301 307 312 314 314 313 314 310 319 328 327 330 331 330 330 330 331 329 329 329 329 329 314 316 317 316
314 312 310 307 304 302 301 302 305 307 308 308 307 306 303 302 303 303 301 303 310 310 313 313 311 310 320 329 330 331 331 329 329 329 328 329 328 327 328 318 315 317 315
313 312 309 307 304 303 301 300 302 304 306 305 303 301 302 304 305 305 303 303 306 310 312 313 313 313 310 321 324 329 330 330 328 328 327 326 327 326 327 326 316 317 314
312 311 309 306 304 303 302 300 302 303 304 303 302 301 303 304 306 306 306 307 308 310 312 312 312 314 312 309 314 323 327 329 328 328 327 326 326 326 326 326 317 317 314
311 309 307 305 305 303 302 300 302 302 302 301 301 302 302 304 304 305 307 307 307 308 309 310 314 314 313 313 310 318 323 326 328 327 327 326 327 327 325 319 316 317 318
308 306 305 305 303 302 301 299 300 300 300 300 301 300 301 302 303 303 304 305 307 307 308 308 309 311 313 315 317 320 321 320 315 324 326 326 326 326 326 321 320 321 320
304 302 301 301 301 300 299 299 299 299 300 300 300 300 300 300 301 302 302 303 304 305 306 306 306 306 308 313 314 317 319 318 315 313 326 327 326 327 325 325 323 322 321
299 298 298 298 298 298 299 299 299 299 299 299 299 299 298 299 299 300 301 301 302 302 303 303 305 306 306 306 310 312 312 315 315 312 315 326 326 326 326 324 324 323 322
Wind_Speed
12 12 10 9 9 10 11 9 10 12 14 13 14 16 16 15 16 16 15 16 14 16 19 22 19 15 16 16 16 15 14 12 10 12 11 9 7 6 4 3 4 5 7
6 13 12 12 11 13 15 15 15 15 13 13 14 18 18 20 18 17 24 17 20 22 18 23 24 22 15 17 17 17 16 15 12 12 13 11 9 7 5 4 4 4 8
9 9 13 18 18 18 17 15 15 17 16 15 16 18 20 20 20 14 21 26 20 21 19 22 29 28 25 19 19 18 17 17 14 12 13 12 10 9 7 4 6 7 8
16 12 15 15 18 21 20 19 19 18 20 21 20 23 25 25 24 24 25 20 24 21 19 29 25 37 29 25 20 19 18 18 15 13 14 12 11 10 9 10 9 9 8
15 14 19 18 18 21 22 19 18 20 22 24 24 24 25 25 25 26 27 22 21 20 20 23 27 36 33 35 18 20 17 18 16 14 15 12 11 11 11 12 11 11 9
15 20 19 20 15 18 19 21 20 21 21 24 24 25 27 26 25 27 25 19 20 23 27 36 38 38 34 31 18 21 19 18 18 17 15 14 12 11 14 12 11 12 8
15 16 20 20 19 20 18 21 22 21 22 24 25 26 26 27 27 25 20 16 27 24 23 19 18 25 12 23 23 18 18 20 20 18 15 13 12 11 11 13 14 14 13
17 20 21 20 17 19 19 21 21 21 19 18 18 20 17 26 20 16 25 25 23 25 28 29 25 24 29 25 25 17 20 20 20 18 15 12 11 11 10 13 15 16 19
10 9 9 11 16 18 18 17 16 17 16 15 14 12 9 8 28 25 25 18 20 25 13 20 16 19 18 19 24 20 19 21 20 18 16 13 11 10 11 13 15 15 13
11 13 14 13 13 15 14 14 13 14 15 16 15 15 13 18 24 20 21 25 17 15 14 13 15 18 20 17 15 18 19 17 20 19 15 11 10 10 12 15 15 13 15
2 4 5 5 7 8 9 10 11 11 11 10 10 13 14 16 18 21 25 27 25 17 9 6 17 14 15 16 16 16 20 17 20 19 16 11 10 11 12 12 12 13 13
8 8 9 9 10 10 11 12 12 11 10 9 7 7 10 13 15 16 21 24 22 18 16 15 10 7 15 19 18 17 20 19 20 20 15 13 11 11 9 8 8 10 11
9 10 10 10 11 12 13 13 13 12 11 9 9 8 8 10 13 14 16 18 21 17 12 9 7 15 16 18 20 16 16 21 18 19 14 15 12 9 8 8 7 9 10
8 9 10 12 13 15 17 16 15 14 13 12 10 10 8 8 11 14 16 16 21 17 16 9 5 13 18 16 18 20 17 18 19 16 17 15 12 9 9 8 8 8 9
4 5 9 13 15 17 18 18 15 14 13 13 12 11 12 12 12 12 11 13 14 16 19 11 2 7 11 15 22 19 12 14 15 18 18 15 12 10 10 8 9 8 9
2 6 10 14 17 18 17 17 17 16 15 15 16 16 15 15 14 13 11 10 12 13 11 15 11 5 4 6 10 10 15 17 23 22 18 15 14 12 10 10 9 8 9
5 8 12 16 19 16 16 17 17 18 16 16 17 17 15 16 16 16 14 11 9 11 13 13 13 5 7 7 9 14 15 17 20 21 19 17 16 14 13 12 8 8 8
9 12 15 19 19 17 17 17 18 18 18 18 18 18 19 18 18 18 17 17 14 11 12 13 13 9 7 10 16 18 16 15 15 21 21 19 18 16 16 12 9 7 7
12 15 17 20 21 21 21 19 18 17 18 19 21 24 26 26 23 20 19 20 17 15 12 13 13 11 10 11 12 11 13 14 16 14 18 17 18 17 16 13 10 7 7
16 18 20 22 23 22 22 20 17 18 21 25 26 28 27 22 20 18 19 19 18 19 18 14 11 12 10 4 14 15 7 10 12 17 14 14 16 18 17 13 12 9 7
18 20 23 25 25 24 24 21 21 22 23 26 30 24 18 15 13 13 14 14 15 18 17 18 19 15 12 10 10 14 9 3 7 12 14 13 14 16 17 15 13 10 6
19 23 26 28 27 28 28 23 20 20 22 25 28 23 14 12 10 9 11 12 12 14 15 14 15 15 11 10 14 13 11 10 13 14 15 15 15 14 12 14 13 11 7
21 25 27 29 30 30 28 23 21 24 27 23 22 17 17 12 12 12 11 11 13 13 13 13 14 16 14 9 12 16 14 11 14 11 13 12 12 13 9 10 14 11 6
22 24 27 29 31 30 28 26 26 25 25 18 15 16 16 13 14 15 14 13 12 12 14 15 17 15 18 14 11 12 12 15 15 14 11 13 11 11 12 11 11 9 6
22 25 26 27 29 30 25 18 17 17 17 18 15 15 16 16 15 15 15 14 13 15 17 19 19 18 20 21 21 19 17 16 21 21 13 12 12 13 13 13 12 11 8
21 22 23 21 19 18 16 15 16 15 16 16 16 16 18 20 17 17 18 18 18 19 21 22 23 25 25 24 24 24 23 22 21 25 19 19 18 15 14 15 14 14 10
Wind_Direction
251 247 258 262 265 281 295 288 299 291 309 303 289 292 293 288 291 279 301 281 265 268 265 267 271 283 283 270 269 271 266 265 261 242 236 236 247 257 261 303 326 342 355
277 252 258 269 274 277 281 285 288 294 303 295 284 280 289 289 293 282 286 294 274 268 266 259 260 263 273 267 262 266 264 258 266 248 236 233 239 248 254 282 310 345 344
284 275 272 264 262 271 277 280 286 293 296 288 287 283 281 293 291 285 301 296 277 282 270 267 278 260 262 264 262 262 263 252 255 249 235 233 237 245 251 269 290 303 323
271 259 279 295 283 265 265 269 273 279 290 295 299 295 294 293 293 296 307 289 280 271 275 302 290 257 255 253 257 254 255 249 246 245 234 235 240 249 255 258 269 277 284
272 257 275 278 272 261 264 266 277 280 282 287 291 288 288 290 296 306 307 294 292 287 266 292 281 293 254 252 245 258 253 243 237 241 236 239 247 256 263 264 261 270 273
234 261 254 262 271 263 261 267 276 281 286 288 290 288 285 290 299 303 303 301 305 294 283 304 294 267 268 260 247 240 248 240 233 235 236 240 251 264 275 270 268 276 284
265 243 241 249 261 261 269 276 278 284 284 289 298 297 300 302 304 307 308 306 306 297 303 308 298 244 235 249 248 247 246 237 231 237 238 241 251 266 274 268 271 287 282
216 224 239 254 255 267 274 278 283 289 300 316 325 330 322 311 307 305 308 312 312 314 277 265 267 266 251 254 240 253 237 230 229 230 234 238 250 263 270 265 265 283 290
212 220 249 286 285 273 285 291 298 307 314 322 335 338 321 297 312 315 322 320 309 325 307 272 278 271 278 236 236 251 228 231 223 226 226 233 248 266 265 261 258 278 273
278 287 287 289 293 298 304 316 321 319 317 318 320 318 310 308 310 317 323 319 328 329 309 282 280 292 283 241 238 243 234 227 218 221 224 233 253 265 258 257 265 260 281
317 332 335 345 358 358 356 356 357 355 350 343 346 336 327 315 318 325 317 322 324 313 287 310 292 300 255 253 236 239 232 235 221 217 224 230 247 261 254 255 258 259 280
63 64 56 45 29 14 6 360 357 353 352 354 344 330 345 339 326 331 319 327 317 320 288 296 302 318 252 239 268 235 230 227 216 215 217 240 246 257 267 249 248 267 283
84 70 49 34 19 7 354 346 340 337 336 329 329 328 322 326 336 333 328 322 326 326 327 309 286 246 245 259 253 240 236 232 220 218 219 233 241 251 256 250 264 272 289
61 47 30 16 3 352 342 335 331 330 317 309 308 306 311 310 310 332 340 339 328 324 310 312 269 256 245 247 246 266 242 227 235 221 227 231 238 244 254 255 263 277 286
71 27 3 354 348 341 334 329 330 327 318 307 303 305 311 297 300 314 334 344 349 337 327 340 350 253 234 270 259 233 236 228 233 232 232 234 232 240 250 256 263 272 290
0 346 343 342 338 333 326 324 321 318 313 302 303 304 297 292 297 300 307 323 340 344 330 334 313 280 323 193 193 218 237 227 233 234 232 234 230 235 245 252 261 273 289
316 324 334 337 334 331 324 321 317 314 317 312 303 304 303 293 293 289 290 302 321 334 339 332 322 267 213 196 234 249 260 240 238 228 225 225 229 234 243 240 258 268 292
309 320 330 335 333 329 326 322 315 313 314 313 310 306 306 300 289 279 283 283 289 312 323 323 331 335 252 209 225 229 242 234 245 229 222 223 232 236 239 240 251 266 295
305 313 323 331 329 326 325 322 317 312 309 306 304 305 305 305 296 283 273 269 277 286 298 314 315 315 322 236 256 262 212 207 241 236 233 229 239 242 239 239 244 261 276
300 308 318 326 325 323 321 315 306 299 299 302 304 308 309 306 299 291 280 275 277 273 274 284 302 315 316 316 245 255 238 235 222 228 226 232 242 247 245 237 240 249 266
298 306 314 318 320 320 320 310 299 296 298 301 306 315 310 306 310 306 293 289 279 279 280 275 280 286 299 288 333 274 251 214 247 253 253 246 247 243 243 237 236 242 247
297 305 308 312 313 314 316 308 300 298 296 301 309 315 310 299 305 301 273 273 277 294 293 291 278 276 275 285 287 317 296 248 260 256 265 254 250 244 253 237 224 227 223
295 299 301 304 307 311 313 303 297 296 299 304 305 314 309 308 309 308 302 295 278 273 283 278 269 269 268 251 263 280 308 290 262 259 276 261 248 240 238 234 214 208 210
293 294 298 300 302 304 306 299 297 294 296 309 314 317 309 308 311 311 305 296 292 289 286 272 268 272 275 260 256 260 265 291 294 258 260 263 253 236 224 218 196 197 208
294 296 296 297 300 302 304 309 315 311 306 305 302 307 304 299 295 296 298 298 282 279 280 278 281 283 268 252 260 259 248 274 288 293 237 255 252 245 226 219 215 199 213
304 305 304 303 297 311 308 315 310 304 305 302 300 298 305 295 286 281 285 289 284 282 280 277 265 261 265 265 252 252 256 261 274 282 274 243 254 245 218 222 219 206 212